Franklin, PA

4:09 PM EST on November 16, 2019 (GMT -0500)
Venango Regional

Weather History for KFKL - June, 2019

Change the Weather History Date:

Saturday, June 8, 2019

  Actual Average Record
Temperature  
Mean Temperature 67 °F -  
Max Temperature 79 °F 77 °F 92 °F (1986)
Min Temperature 55 °F 53 °F 33 °F (1977)
Cooling Degree Days 2    
Growing Degree Days 17 (Base 50)    
Moisture  
Dew Point 52 °F    
Average Humidity 61    
Maximum Humidity 87    
Minimum Humidity 37    
Precipitation  
Precipitation 0.00 in - - ()
Sea Level Pressure  
Sea Level Pressure 30.11 in    
Wind  
Wind Speed 6 mph (East)    
Max Wind Speed 15 mph    
Max Gust Speed 18 mph    
Visibility 10 miles    
Events      
Averages and records for this station are not official NWS values.
T = Trace of Precipitation, MM = Missing Value Source: NWS Daily Summary

Daily Weather History Graph

Daily Weather History Graph

Search for Another Location

Airport or City:

Astronomy

Jun. 08, 2019 Rise Set
Actual Time 5:46 AM EDT 8:51 PM EDT
Civil Twilight 5:12 AM EDT 9:24 PM EDT
Nautical Twilight 4:29 AM EDT 10:07 PM EDT
Astronomical Twilight 3:39 AM EDT 10:58 PM EDT
Moon 11:13 AM EDT (6/8) 12:50 AM EDT (6/8)
Length of Visible Light 16h 12m
Length of Day
15h 05m
Waxing Crescent, 32% of the Moon is Illuminated
Jun 8
Waxing Crescent
Jun 10
First Quarter
Jun 17
Full
Jun 25
Last Quarter
Jul 2
New

Hourly Weather History & Observations

Time (EDT) Temp. Dew Point Humidity Pressure Visibility Wind Dir Wind Speed Gust Speed Precip Events Conditions
12:56 AM 61.0 °F 53.1 °F 75% 30.06 in 10.0 mi ENE 4.6 mph - N/A   Clear
1:56 AM 59.0 °F 53.1 °F 81% 30.06 in 10.0 mi NE 4.6 mph - N/A   Clear
2:56 AM 57.0 °F 53.1 °F 87% 30.07 in 10.0 mi NE 4.6 mph - N/A   Clear
3:56 AM 55.9 °F 52.0 °F 87% 30.08 in 10.0 mi ENE 4.6 mph - N/A   Clear
4:56 AM 55.9 °F 52.0 °F 87% 30.09 in 10.0 mi East 4.6 mph - N/A   Clear
5:56 AM 55.9 °F 51.1 °F 84% 30.10 in 10.0 mi East 4.6 mph - N/A   Clear
6:56 AM 55.9 °F 51.1 °F 84% 30.10 in 10.0 mi East 4.6 mph - N/A   Clear
7:56 AM 60.1 °F 53.1 °F 78% 30.11 in 10.0 mi NE 4.6 mph - N/A   Clear
8:56 AM 66.0 °F 51.1 °F 59% 30.12 in 10.0 mi East 9.2 mph - N/A   Clear
9:56 AM 69.1 °F 50.0 °F 51% 30.13 in 10.0 mi East 8.1 mph - N/A   Clear
10:56 AM 70.0 °F 48.0 °F 46% 30.13 in 10.0 mi East 11.5 mph - N/A   Clear
11:56 AM 73.9 °F 50.0 °F 43% 30.13 in 10.0 mi SE 15.0 mph 18.4 mph N/A   Clear
12:56 PM 73.9 °F 50.0 °F 43% 30.14 in 10.0 mi ESE 9.2 mph - N/A   Clear
1:56 PM 75.9 °F 51.1 °F 42% 30.12 in 10.0 mi ESE 11.5 mph - N/A   Clear
2:56 PM 75.9 °F 48.0 °F 37% 30.11 in 10.0 mi East 11.5 mph 18.4 mph N/A   Clear
3:56 PM 79.0 °F 52.0 °F 39% 30.11 in 10.0 mi East 8.1 mph - N/A   Clear
4:56 PM 77.0 °F 51.1 °F 40% 30.11 in 10.0 mi ESE 9.2 mph - N/A   Clear
5:56 PM 77.0 °F 54.0 °F 45% 30.11 in 10.0 mi ESE 6.9 mph - N/A   Clear
6:56 PM 75.0 °F 53.1 °F 46% 30.12 in 10.0 mi East 5.8 mph - N/A   Clear
7:56 PM 72.0 °F 53.1 °F 51% 30.12 in 10.0 mi ESE 9.2 mph - N/A   Clear
8:56 PM 70.0 °F 53.1 °F 55% 30.12 in 10.0 mi East 4.6 mph - N/A   Clear
9:56 PM 66.9 °F 54.0 °F 63% 30.12 in 10.0 mi East 4.6 mph - N/A   Clear
10:56 PM 64.9 °F 54.0 °F 68% 30.14 in 10.0 mi East 5.8 mph - N/A   Clear
11:56 PM 64.9 °F 54.0 °F 68% 30.14 in 10.0 mi ESE 6.9 mph - N/A   Clear